Tracking 29892 objects as of 21-Nov-2024
HD Live streaming from Space Station
objects crossing your sky now

STARLINK-31088

Track STARLINK-31088 now!
10-day predictions
STARLINK-31088 is classified as:


NORAD ID: 58604
Int'l Code: 2023-200R
Perigee: 565.5 km
Apogee: 567.0 km
Inclination: 43.0 °
Period: 95.8 minutes
Semi major axis: 6937 km
RCS: Unknown
Launch date: December 19, 2023
Source: United States (US)
Launch site: AIR FORCE EASTERN TEST RANGE (AFETR)
Your satellite tracking list
Your tracking list is empty




NASA's NSSDC Master Catalog

Two Line Element Set (TLE):
1 58604U 23200R   24326.09243682  .00002714  00000-0  21597-3 0  9992
2 58604  43.0023 223.5760 0001018 252.5880 107.4851 15.02526770 52370
Source of the keplerian elements: AFSPC